Lid_Strength_Index
1 1 1 1 1 1 1 2 3 6 5 2 2 -0 -1 -1 -1 -1 -1 -1 -1 -1 -0 0 -0 -0 -0 -1 -0 -0 -0 -0 -0 -0 -0 -0 -1 -1
0 1 1 1 1 1 1 1 2 3 5 2 1 0 -1 -1 -1 0 0 -0 0 -0 -1 0 0 0 0 0 -0 0 0 0 0 0 0 0 0 -0
1 1 1 0 1 1 2 2 2 2 4 3 2 1 0 0 -0 -0 -0 -1 -1 -1 -0 -1 0 1 1 1 0 1 1 1 1 0 0 0 0 0
1 1 1 1 1 1 2 2 1 2 3 4 3 2 2 1 1 0 0 -0 -0 -1 -1 -1 1 1 1 1 2 2 2 2 1 1 1 1 0 0
1 1 2 2 3 2 2 3 2 1 1 3 3 2 2 2 2 2 1 0 1 -1 -1 -1 -1 0 1 3 3 3 4 4 3 3 3 2 1 1
3 2 2 3 4 4 5 6 5 4 3 4 3 3 2 2 2 3 3 2 2 1 -1 -0 -0 -0 1 2 2 4 5 6 6 5 5 4 3 2
4 3 4 3 3 4 5 7 7 8 8 8 7 5 5 4 4 3 4 3 2 1 0 0 0 -1 1 1 0 1 3 4 6 6 6 6 5 4
5 4 3 4 4 4 4 5 5 6 7 7 7 7 5 4 4 4 4 4 5 0 1 2 1 1 -0 1 2 3 3 3 4 5 6 7 6 6
6 5 5 5 5 4 4 5 5 5 5 5 6 7 6 5 4 5 5 5 5 5 4 4 2 2 1 1 1 2 3 4 4 4 5 6 7 7
5 5 5 5 5 4 4 5 6 6 6 6 6 6 6 5 5 4 5 5 5 4 4 7 3 3 2 2 1 2 3 4 4 5 5 5 7 8
5 5 4 5 5 4 5 6 6 6 6 5 5 5 5 4 4 5 6 7 7 7 5 5 4 4 4 3 1 1 2 4 5 5 5 5 6 8
6 5 5 5 5 5 5 6 7 7 7 6 6 6 5 6 5 5 6 7 7 7 5 7 6 4 5 2 1 -0 -0 1 4 5 6 6 6 2
7 7 6 6 5 5 5 6 6 6 5 6 6 6 6 6 6 6 6 6 7 7 4 4 5 6 5 5 3 2 2 1 -0 -0 4 5 7 5
7 6 6 6 6 6 5 6 5 5 6 6 7 7 7 7 6 6 5 5 5 5 4 3 5 4 5 6 5 3 2 1 -0 0 -0 2 7 8
5 4 3 4 4 4 4 4 4 5 6 7 7 7 7 6 6 6 5 5 5 4 4 3 4 4 4 5 5 4 3 1 0 0 0 0 0 1
4 5 4 4 4 4 5 4 5 5 6 6 6 5 5 5 6 5 6 6 6 6 3 3 3 3 3 3 2 4 3 3 1 0 0 0 -0 -0
5 5 6 5 5 5 5 4 4 4 5 5 6 5 5 5 6 5 6 7 8 8 7 5 4 3 4 4 5 3 3 3 2 1 1 2 1 0
6 6 5 5 5 5 5 5 4 4 4 4 5 5 6 5 5 5 6 8 8 8 7 6 6 6 5 5 3 5 4 3 2 1 1 2 2 1
6 7 7 6 6 6 6 6 6 5 5 5 5 5 5 5 5 6 6 7 8 7 7 6 6 6 7 8 5 4 4 3 1 2 1 2 2 1
7 7 6 6 7 7 7 7 7 7 7 6 6 6 6 7 7 7 6 7 7 7 8 7 7 6 7 7 7 6 6 5 4 3 2 1 1 1
7 6 6 7 7 6 6 7 7 7 7 7 7 7 7 8 8 7 7 7 7 7 8 7 6 5 5 5 7 6 5 6 4 2 1 2 2 2
7 7 7 7 7 7 7 7 7 7 7 7 7 8 8 10 11 8 8 8 8 8 8 7 6 6 7 7 8 6 5 4 3 3 3 2 2 4
7 7 7 7 7 7 7 7 7 7 7 7 8 8 10 11 10 8 8 8 8 8 8 8 7 7 7 7 7 7 6 5 3 2 1 2 3 2